N4NVD-13 Weather Reports


Display with metric or nautical units.
time (UTC)temp
F
wind
direction
speed
MPH
gust
MPH
rain 1hr
in
rain 24hr
in
rain mn
in
humidity
%
barometer
mb
20240624135918 86 147 2.0 3.0 0.00 0.00 0.00 84 1016.3
20240624135417 85 90 0.0 4.0 0.00 0.00 0.00 87 1016.0
20240624134916 84 209 1.0 3.0 0.00 0.00 0.00 86 1015.9
20240624134414 86 55 3.0 6.0 0.00 0.00 0.00 84 1016.0
20240624133913 84 233 3.0 5.0 0.00 0.00 0.00 87 1015.9
20240624133412 84 148 0.0 2.0 0.00 0.00 0.00 87 1015.9
20240624132910 84 185 2.0 3.0 0.00 0.00 0.00 88 1015.8
20240624132406 84 168 0.0 3.0 0.00 0.00 0.00 87 1015.9
20240624131904 84 166 0.0 3.0 0.00 0.00 0.00 88 1015.8
20240624131402 84 270 0.0 1.0 0.00 0.00 0.00 89 1015.7
20240624130900 84 180 0.0 2.0 0.00 0.00 0.00 90 1015.6
20240624130359 84 103 0.0 2.0 0.00 0.00 0.00 89 1015.5
20240624125857 84 66 0.0 2.0 0.00 0.00 0.00 90 1015.6
20240624125356 84 81 0.0 0.0 0.00 0.00 0.00 95 1015.3
20240624124854 83 0 0.0 0.0 0.00 0.00 0.00 97 1015.4
20240624124353 82 0 0.0 0.0 0.00 0.00 0.00 99 1015.4
20240624123852 81 0 0.0 0.0 0.00 0.00 0.00 99 1015.1
20240624123350 79 0 0.0 1.0 0.00 0.00 0.00 99 1015.3
20240624122849 79 15 0.0 1.0 0.00 0.00 0.00 99 1015.2
20240624122350 80 279 0.0 0.0 0.00 0.00 0.00 99 1015.3
20240624121849 79 279 0.0 0.0 0.00 0.00 0.00 99 1015.2
20240624121349 77 279 0.0 0.0 0.00 0.00 0.00 99 1015.3
20240624120849 76 279 0.0 0.0 0.00 0.00 0.00 99 1015.2
20240624120348 75 345 0.0 0.0 0.00 0.00 0.00 99 1014.9
20240624115847 74 345 0.0 0.0 0.00 0.00 0.00 99 1015.1
20240624115346 74 345 0.0 0.0 0.00 0.00 0.00 99 1014.9
20240624114845 74 345 0.0 0.0 0.00 0.00 0.00 99 1014.8
20240624114343 74 345 0.0 0.0 0.00 0.00 0.00 99 1014.6
20240624113842 74 345 0.0 0.0 0.00 0.00 0.00 99 1014.7
20240624113341 74 345 0.0 1.0 0.00 0.00 0.00 99 1014.7
20240624112840 74 270 0.0 0.0 0.00 0.00 0.00 99 1014.6
20240624112338 74 270 0.0 0.0 0.00 0.00 0.00 99 1014.5
20240624111837 74 270 0.0 0.0 0.00 0.00 0.00 99 1014.9
20240624111336 74 270 0.0 0.0 0.00 0.00 0.00 99 1014.6
20240624110835 74 270 0.0 0.0 0.00 0.00 0.00 99 1014.6
20240624110333 74 270 0.0 0.0 0.00 0.00 0.00 99 1014.6
20240624105832 73 270 0.0 0.0 0.00 0.00 0.00 99 1014.7
20240624105331 74 270 0.0 0.0 0.00 0.00 0.00 99 1014.5
20240624104829 74 270 0.0 1.0 0.00 0.00 0.00 99 1014.6
20240624104328 74 262 0.0 1.0 0.00 0.00 0.00 99 1014.5
20240624103827 74 279 0.0 0.0 0.00 0.00 0.00 99 1014.4
20240624103326 74 279 0.0 0.0 0.00 0.00 0.00 99 1014.6
20240624102824 74 279 0.0 0.0 0.00 0.00 0.00 99 1014.3
20240624102322 74 337 0.0 0.0 0.00 0.00 0.00 99 1014.4
20240624101822 75 337 0.0 0.0 0.00 0.00 0.00 99 1014.3
20240624101320 75 337 0.0 1.0 0.00 0.00 0.00 99 1014.1
20240624100819 75 353 0.0 1.0 0.00 0.00 0.00 99 1014.3
20240624100316 75 0 0.0 0.0 0.00 0.00 0.00 99 1014.1
20240624095815 75 0 0.0 0.0 0.00 0.00 0.00 99 1014.4
20240624095313 75 0 0.0 0.0 0.00 0.00 0.00 99 1014.3
20240624094812 75 0 0.0 0.0 0.00 0.00 0.00 99 1014.4
20240624094312 75 0 0.0 0.0 0.00 0.00 0.00 99 1014.2
20240624093812 75 0 0.0 0.0 0.00 0.00 0.00 99 1014.1
20240624093311 75 0 0.0 0.0 0.00 0.00 0.00 99 1014.4
20240624092810 75 0 0.0 0.0 0.00 0.00 0.00 99 1014.3
20240624092308 75 0 0.0 0.0 0.00 0.00 0.00 99 1014.1
20240624091807 75 0 0.0 0.0 0.00 0.00 0.00 99 1014.2
20240624091304 75 0 0.0 0.0 0.00 0.00 0.00 99 1014.3
20240624090802 75 0 0.0 0.0 0.00 0.00 0.00 99 1014.4
20240624090302 75 0 0.0 0.0 0.00 0.00 0.00 99 1014.3
20240624085800 75 0 0.0 0.0 0.00 0.00 0.00 99 1014.4
20240624085258 75 0 0.0 0.0 0.00 0.00 0.00 99 1014.5
20240624084757 75 0 0.0 0.0 0.00 0.00 0.00 98 1014.3
20240624084254 76 0 0.0 0.0 0.00 0.00 0.00 98 1014.3
20240624083753 76 0 0.0 0.0 0.00 0.00 0.00 98 1014.6
20240624083250 76 90 0.0 0.0 0.00 0.00 0.00 98 1014.5
20240624082749 76 90 0.0 0.0 0.00 0.00 0.00 98 1014.5
20240624082248 76 90 0.0 0.0 0.00 0.00 0.00 98 1014.3
20240624081746 76 90 0.0 0.0 0.00 0.00 0.00 98 1014.6
20240624081243 76 90 0.0 0.0 0.00 0.00 0.00 98 1014.3
20240624080741 76 90 0.0 0.0 0.00 0.00 0.00 98 1014.2
20240624080239 76 90 0.0 0.0 0.00 0.00 0.00 98 1014.3
20240624075738 76 90 0.0 0.0 0.00 0.00 0.00 98 1014.4
20240624075238 77 90 0.0 0.0 0.00 0.00 0.00 98 1014.5
20240624074737 77 90 0.0 0.0 0.00 0.00 0.00 97 1014.4
20240624074237 77 90 0.0 0.0 0.00 0.00 0.00 97 1014.3
20240624073736 77 90 0.0 0.0 0.00 0.00 0.00 97 1014.5
20240624073236 77 90 0.0 0.0 0.00 0.00 0.00 97 1014.3
20240624072735 77 90 0.0 0.0 0.00 0.00 0.00 97 1014.5
20240624072235 77 0 0.0 0.0 0.00 0.00 0.00 97 1014.5
20240624071734 77 0 0.0 0.0 0.00 0.00 0.00 97 1014.5
20240624071234 77 352 0.0 0.0 0.00 0.00 0.00 97 1014.4
20240624070734 77 352 0.0 0.0 0.00 0.00 0.00 97 1014.5
20240624070233 78 352 0.0 0.0 0.00 0.00 0.00 97 1014.5
20240624065731 78 352 0.0 0.0 0.00 0.00 0.00 97 1014.5
20240624065229 78 352 0.0 0.0 0.00 0.00 0.00 96 1014.6
20240624064728 78 352 0.0 0.0 0.00 0.00 0.00 96 1014.6
20240624064227 78 352 0.0 0.0 0.00 0.00 0.00 96 1014.7
20240624063725 78 352 0.0 0.0 0.00 0.00 0.00 95 1014.5
20240624063224 78 352 0.0 1.0 0.00 0.00 0.00 95 1014.7
20240624062722 79 234 0.0 0.0 0.00 0.00 0.00 95 1014.9
20240624062220 79 234 0.0 0.0 0.00 0.00 0.00 95 1014.8
20240624061719 79 234 0.0 0.0 0.00 0.00 0.00 95 1014.7
20240624061220 79 246 0.0 1.0 0.00 0.00 0.00 95 1014.8
20240624060718 80 139 0.0 0.0 0.00 0.00 0.00 94 1014.7
20240624060217 80 139 0.0 0.0 0.00 0.00 0.00 94 1014.8
20240624055716 80 240 0.0 1.0 0.00 0.00 0.00 94 1014.8
20240624055215 80 228 0.0 2.0 0.00 0.00 0.00 94 1014.8
20240624054714 80 212 0.0 2.0 0.00 0.00 0.00 94 1015.0
20240624054212 80 98 0.0 2.0 0.00 0.00 0.00 94 1014.8
20240624053710 80 99 0.0 0.0 0.00 0.00 0.00 94 1014.8
20240624053210 80 99 0.0 1.0 0.00 0.00 0.00 94 1015.1
20240624052708 80 151 0.0 1.0 0.00 0.00 0.00 93 1015.1
20240624052207 80 90 0.0 0.0 0.00 0.00 0.00 93 1014.8
20240624051706 80 160 0.0 3.0 0.00 0.00 0.00 94 1014.8
20240624051204 80 90 0.0 0.0 0.00 0.00 0.00 93 1015.0
20240624050702 80 83 0.0 0.0 0.00 0.00 0.00 93 1014.9
20240624050200 80 98 0.0 1.0 0.00 0.00 0.00 93 1014.9
20240624045659 80 99 0.0 1.0 0.00 0.00 0.00 93 1014.9
20240624045159 80 240 0.0 1.0 0.00 0.00 0.00 93 1015.0
20240624044657 80 148 0.0 2.0 0.00 0.00 0.00 93 1014.9
20240624044157 80 255 0.0 0.0 0.00 0.00 0.00 93 1014.8
20240624043655 80 255 0.0 1.0 0.00 0.00 0.00 93 1014.8
20240624043154 80 106 0.0 0.0 0.00 0.00 0.00 93 1014.9
20240624042653 80 106 0.0 0.0 0.00 0.00 0.00 93 1014.9
20240624042152 81 106 0.0 0.0 0.00 0.00 0.00 92 1014.9
20240624041650 81 106 0.0 0.0 0.00 0.00 0.00 92 1014.7
20240624041149 81 106 0.0 0.0 0.00 0.00 0.00 92 1014.8
20240624040647 81 225 0.0 0.0 0.00 0.00 0.00 91 1014.6
20240624040146 81 225 0.0 0.0 0.00 0.00 0.00 91 1014.6
20240624035644 81 225 0.0 0.0 0.00 0.00 0.00 91 1014.2
20240624035140 82 225 0.0 0.0 0.00 0.00 0.00 91 1014.5
20240624034639 82 225 0.0 0.0 0.00 0.00 0.00 91 1014.4
20240624034138 82 203 0.0 1.0 0.00 0.00 0.00 91 1014.4
20240624033637 82 240 0.0 0.0 0.00 0.00 0.00 90 1014.4
20240624033134 82 240 0.0 0.0 0.00 0.00 0.00 90 1014.2
20240624032631 81 240 0.0 0.0 0.00 0.00 0.00 91 1014.3
20240624032129 81 270 0.0 0.0 0.00 0.00 0.00 91 1014.3
20240624031627 80 254 0.0 0.0 0.00 0.00 0.00 91 1014.1
20240624031115 80 254 0.0 1.0 0.00 0.00 0.00 91 1014.0
20240624030614 80 83 0.0 0.0 0.00 0.00 0.00 91 1013.9
20240624030113 80 83 0.0 0.0 0.00 0.00 0.00 91 1013.9
20240624025609 80 83 0.0 0.0 0.00 0.00 0.00 91 1013.9
20240624025108 80 83 0.0 1.0 0.00 0.00 0.00 92 1013.9
20240624024608 80 74 0.0 0.0 0.00 0.00 0.00 92 1013.7
20240624024106 80 81 0.0 2.0 0.00 0.00 0.00 92 1013.5
20240624023605 80 195 0.0 2.0 0.00 0.00 0.00 92 1013.5
20240624023104 80 270 0.0 0.0 0.00 0.00 0.00 90 1013.6
20240624022603 80 270 0.0 0.0 0.00 0.00 0.00 90 1013.5
20240624022103 81 270 0.0 0.0 0.00 0.00 0.00 90 1013.3
20240624021603 81 15 0.0 0.0 0.00 0.00 0.00 89 1013.3
20240624021101 81 15 0.0 0.0 0.00 0.00 0.00 89 1013.5
20240624020558 82 15 0.0 0.0 0.00 0.00 0.00 88 1013.4
20240624020056 82 15 0.0 0.0 0.00 0.00 0.00 87 1013.1
20240624015552 83 15 0.0 0.0 0.00 0.00 0.00 86 1013.1
20240624015050 83 15 0.0 0.0 0.00 0.00 0.00 85 1013.2
20240624014550 84 15 0.0 0.0 0.00 0.00 0.00 83 1013.1
20240624014049 84 15 0.0 0.0 0.00 0.00 0.00 81 1013.1
20240624013547 85 15 0.0 0.0 0.00 0.00 0.00 80 1013.1
20240624013046 86 15 0.0 0.0 0.00 0.00 0.00 78 1013.2
20240624012545 86 15 0.0 0.0 0.00 0.00 0.00 76 1013.3
20240624012043 86 15 0.0 0.0 0.00 0.00 0.00 75 1013.2
20240624011543 87 15 0.0 0.0 0.00 0.00 0.00 72 1013.0
20240624011041 87 15 0.0 0.0 0.00 0.00 0.00 72 1013.0
20240624010540 88 74 0.0 0.0 0.00 0.00 0.00 71 1013.0
20240624010039 89 74 0.0 0.0 0.00 0.00 0.00 70 1013.1
20240624005538 89 74 0.0 1.0 0.00 0.00 0.00 69 1013.2
20240624005037 89 75 0.0 2.0 0.00 0.00 0.00 68 1013.0
20240624004537 90 74 0.0 1.0 0.00 0.00 0.00 68 1013.2
20240624004035 90 66 0.0 0.0 0.00 0.00 0.00 67 1013.3
20240624003536 90 74 1.0 2.0 0.00 0.00 0.00 66 1013.2
20240624003036 91 80 2.0 3.0 0.00 0.00 0.00 63 1013.0
20240624002536 92 82 2.0 3.0 0.00 0.00 0.00 63 1013.2
20240624002035 92 74 1.0 4.0 0.00 0.00 0.00 62 1013.3
20240624001534 92 132 2.0 3.0 0.00 0.00 0.00 61 1013.2
20240624001033 92 77 1.0 4.0 0.00 0.00 0.00 61 1013.0
20240624000532 92 66 1.0 4.0 0.00 0.00 0.00 61 1013.1
20240624000031 92 85 2.0 3.0 0.00 0.00 0.00 61 1013.1
20240623235529 92 69 3.0 4.0 0.00 0.00 0.00 61 1013.1
20240623235029 92 90 0.0 3.0 0.00 0.00 0.00 61 1013.1
20240623234527 92 45 0.0 5.0 0.00 0.00 0.00 58 1013.1
20240623234026 93 82 1.0 3.0 0.00 0.00 0.00 58 1012.7
20240623233525 94 80 4.0 4.0 0.00 0.00 0.00 58 1013.0
20240623233025 94 23 0.0 2.0 0.00 0.00 0.00 57 1013.0
20240623232525 93 90 2.0 2.0 0.00 0.00 0.00 56 1013.2
20240623232023 93 81 3.0 4.0 0.00 0.00 0.00 57 1012.9
20240623231522 93 106 2.0 3.0 0.00 0.00 0.00 59 1013.2
20240623231020 92 101 3.0 5.0 0.00 0.00 0.00 58 1013.0
20240623230519 93 56 2.0 3.0 0.00 0.00 0.00 58 1013.4
20240623230018 94 113 2.0 3.0 0.00 0.00 0.00 56 1013.1
20240623225517 95 75 2.0 2.0 0.00 0.00 0.00 53 1013.2
20240623225009 93 120 0.0 2.0 0.00 0.00 0.00 57 1013.2
20240623224508 93 85 2.0 4.0 0.00 0.00 0.00 59 1013.2
20240623224006 93 107 5.0 7.0 0.00 0.00 0.00 61 1013.2
20240623223505 93 9 2.0 4.0 0.00 0.00 0.00 59 1013.6
20240623223003 92 120 0.0 5.0 0.00 0.00 0.00 60 1013.3
20240623222503 92 95 2.0 4.0 0.00 0.00 0.00 61 1013.6
20240623222002 93 77 0.0 5.0 0.00 0.00 0.00 61 1013.5
20240623221501 93 93 4.0 5.0 0.00 0.00 0.00 60 1013.5
20240623220954 94 38 2.0 3.0 0.00 0.00 0.00 62 1013.5
20240623220453 93 187 1.0 3.0 0.00 0.00 0.00 59 1013.7
20240623215952 93 107 3.0 4.0 0.00 0.00 0.00 58 1013.7
20240623215451 93 82 2.0 6.0 0.00 0.00 0.00 61 1013.8
20240623214949 95 24 3.0 4.0 0.00 0.00 0.00 58 1013.9
20240623214448 95 148 2.0 4.0 0.00 0.00 0.00 56 1014.0
20240623213946 94 18 2.0 3.0 0.00 0.00 0.00 58 1014.0
20240623213445 93 165 1.0 4.0 0.00 0.00 0.00 57 1014.0
20240623212945 92 101 5.0 5.0 0.00 0.00 0.00 61 1014.1
20240623212444 92 90 2.0 3.0 0.00 0.00 0.00 61 1014.0
20240623211942 92 101 3.0 7.0 0.00 0.00 0.00 63 1014.0
20240623211442 94 95 0.0 3.0 0.00 0.00 0.00 58 1014.1
20240623210940 94 111 0.0 3.0 0.00 0.00 0.00 58 1014.3
20240623210438 93 105 0.0 6.0 0.00 0.00 0.00 59 1014.3
20240623205937 93 103 1.0 6.0 0.00 0.00 0.00 62 1014.3
20240623205437 93 151 0.0 2.0 0.00 0.00 0.00 61 1014.4
20240623204936 93 112 4.0 5.0 0.00 0.00 0.00 61 1014.5
20240623204435 93 86 3.0 6.0 0.00 0.00 0.00 62 1014.5
20240623203934 93 148 0.0 4.0 0.00 0.00 0.00 61 1014.7
20240623203432 92 60 1.0 3.0 0.00 0.00 0.00 62 1014.6
20240623202930 91 98 4.0 5.0 0.00 0.00 0.00 64 1014.9
20240623202430 92 192 0.0 4.0 0.00 0.00 0.00 62 1014.9
20240623201929 93 166 1.0 4.0 0.00 0.00 0.00 62 1015.1
20240623201427 91 114 3.0 6.0 0.00 0.00 0.00 64 1015.0
20240623200925 91 197 2.0 4.0 0.00 0.00 0.00 65 1014.9
20240623200425 93 270 1.0 2.0 0.00 0.00 0.00 64 1015.0
20240623195923 91 59 2.0 6.0 0.00 0.00 0.00 64 1015.0
20240623195421 91 101 2.0 5.0 0.00 0.00 0.00 67 1015.1
20240623194920 89 65 2.0 5.0 0.00 0.00 0.00 67 1015.1
20240623194420 92 90 1.0 2.0 0.00 0.00 0.00 62 1015.2
20240623193918 93 198 0.0 2.0 0.00 0.00 0.00 60 1015.5
20240623193417 92 99 0.0 4.0 0.00 0.00 0.00 62 1015.3
20240623192916 92 203 0.0 5.0 0.00 0.00 0.00 63 1015.5
20240623192415 92 200 3.0 4.0 0.00 0.00 0.00 61 1015.3
20240623191913 92 141 3.0 5.0 0.00 0.00 0.00 61 1015.4
20240623191412 91 261 2.0 3.0 0.00 0.00 0.00 61 1015.4
20240623190910 92 66 2.0 5.0 0.00 0.00 0.00 61 1015.4
20240623190408 92 112 4.0 4.0 0.00 0.00 0.00 64 1015.7
20240623185906 92 206 0.0 3.0 0.00 0.00 0.00 61 1015.7
20240623185403 91 192 0.0 6.0 0.00 0.00 0.00 64 1015.9
20240623184902 91 234 0.0 3.0 0.00 0.00 0.00 61 1015.6
20240623184358 91 198 0.0 4.0 0.00 0.00 0.00 67 1015.8
20240623183857 91 103 2.0 6.0 0.00 0.00 0.00 62 1016.0
20240623183357 91 79 3.0 6.0 0.00 0.00 0.00 63 1016.1
20240623182855 91 246 0.0 3.0 0.00 0.00 0.00 61 1016.0
20240623182354 90 126 4.0 7.0 0.00 0.00 0.00 61 1016.2
20240623181852 90 152 0.0 12.0 0.00 0.00 0.00 64 1016.0
20240623181350 90 69 1.0 4.0 0.00 0.00 0.00 64 1016.0
20240623180848 90 102 5.0 5.0 0.00 0.00 0.00 64 1016.0
20240623180347 90 312 0.0 9.0 0.00 0.00 0.00 65 1016.3
20240623175845 90 198 2.0 6.0 0.00 0.00 0.00 61 1016.3
20240623175344 90 113 3.0 4.0 0.00 0.00 0.00 61 1016.3
20240623174845 89 99 3.0 11.0 0.00 0.00 0.00 64 1016.3
20240623174342 89 149 3.0 6.0 0.00 0.00 0.00 63 1016.5
20240623173842 89 213 4.0 6.0 0.00 0.00 0.00 63 1016.5
20240623173340 90 99 1.0 6.0 0.00 0.00 0.00 62 1016.4
20240623172839 91 148 3.0 4.0 0.00 0.00 0.00 57 1016.6
20240623172338 89 203 2.0 3.0 0.00 0.00 0.00 59 1016.4
20240623171836 89 103 1.0 6.0 0.00 0.00 0.00 60 1016.4
20240623171335 90 166 1.0 4.0 0.00 0.00 0.00 59 1016.4
20240623170833 90 90 3.0 4.0 0.00 0.00 0.00 59 1016.5
20240623170332 89 83 1.0 5.0 0.00 0.00 0.00 61 1016.8
20240623165831 89 126 0.0 5.0 0.00 0.00 0.00 60 1016.8
20240623165329 89 142 2.0 5.0 0.00 0.00 0.00 65 1016.8
20240623164828 89 114 5.0 5.0 0.00 0.00 0.00 61 1016.6
20240623164327 89 153 0.0 6.0 0.00 0.00 0.00 62 1016.5
20240623163825 89 82 3.0 4.0 0.00 0.00 0.00 64 1016.8
20240623163324 88 5 0.0 3.0 0.00 0.00 0.00 56 1016.6
20240623162822 88 153 5.0 7.0 0.00 0.00 0.00 66 1016.6
20240623162322 87 67 4.0 5.0 0.00 0.00 0.00 67 1016.8
20240623161820 87 117 0.0 4.0 0.00 0.00 0.00 67 1016.8
20240623161320 88 346 3.0 3.0 0.00 0.00 0.00 65 1016.7
20240623160818 88 60 1.0 5.0 0.00 0.00 0.00 67 1016.8
20240623160316 87 180 2.0 5.0 0.00 0.00 0.00 69 1017.0
20240623155816 86 221 2.0 4.0 0.00 0.00 0.00 68 1016.8
20240623155315 87 164 2.0 6.0 0.00 0.00 0.00 70 1017.1
20240623154814 87 82 2.0 4.0 0.00 0.00 0.00 74 1016.7
20240623154313 86 233 0.0 5.0 0.00 0.00 0.00 74 1016.8
20240623153811 87 68 3.0 6.0 0.00 0.00 0.00 72 1016.7
20240623153310 87 188 0.0 5.0 0.00 0.00 0.00 73 1016.9
20240623152809 87 208 3.0 5.0 0.00 0.00 0.00 74 1016.8
20240623152308 87 145 1.0 5.0 0.00 0.00 0.00 74 1016.9
20240623151806 86 111 0.0 1.0 0.00 0.00 0.00 75 1016.7
20240623151305 86 100 4.0 6.0 0.00 0.00 0.00 76 1016.8
20240623150803 85 213 3.0 5.0 0.00 0.00 0.00 77 1016.8
20240623150301 85 188 1.0 4.0 0.00 0.00 0.00 77 1016.7
20240623145800 85 210 0.0 4.0 0.00 0.00 0.00 80 1016.8
20240623145300 85 84 2.0 3.0 0.00 0.00 0.00 79 1016.8
20240623144758 84 154 0.0 4.0 0.00 0.00 0.00 78 1016.8
20240623144256 83 205 3.0 5.0 0.00 0.00 0.00 80 1016.9
20240623143755 85 150 2.0 3.0 0.00 0.00 0.00 78 1016.9
20240623143255 85 156 0.0 3.0 0.00 0.00 0.00 78 1017.1
20240623142753 84 106 0.0 3.0 0.00 0.00 0.00 78 1016.9
20240623142251 84 210 3.0 4.0 0.00 0.00 0.00 79 1017.1
20240623141750 85 261 1.0 3.0 0.00 0.00 0.00 78 1017.2
20240623141248 84 176 2.0 4.0 0.00 0.00 0.00 81 1017.0
20240623140747 83 186 1.0 3.0 0.00 0.00 0.00 81 1017.1
20240623140244 84 101 0.0 5.0 0.00 0.00 0.00 80 1017.0